Location: Napier
(39.4830°S, 176.9170°E)
Time: 17:23:06
(UTC+13:00)

ISS - Pass Details

Date: 01 February 2019
Orbit: 403 x 411 km, 51.6° (Epoch: 23 February)

Event Time Altitude Azimuth Distance (km) Brightness Sun altitude
Exits shadow 05:18:38 14° 271° (W) 1,251 -1.9 -11.5°
Maximum altitude 05:21:02 33° 210° (SSW) 722 -2.5 -11.1°
Drops below altitude 10° 05:24:08 10° 143° (SE) 1,501 0.3 -10.6°
Sets 05:26:22 0° 133° (SE) 2,365 2.1 -10.2°
